Welcome to the New NWS' Forecast!
Most changes are behind the scenes, but click here for differences you might notice.

Regional Weather Roundup (RWR)

Issued by National Weather Service (NWS)

                            
000
ASUS42 KTBW 161716
RWRFL 
FLORIDA REGIONAL WEATHER ROUNDUP
NATIONAL WEATHER SERVICE TAMPA BAY RUSKIN FL
1200 PM EST FRI NOV 16 2018

NOTE: "FAIR" INDICATES FEW OR NO CLOUDS BELOW 12,000 FEET WITH NO
SIGNIFICANT WEATHER AND/OR OBSTRUCTIONS TO VISIBILITY.

FLZ001>010-012>015-112-114-115-161800-
PANHANDLE FLORIDA
  
CITY           SKY/WX    TMP DP  RH WIND       PRES   REMARKS
PENSACOLA      FAIR      54  34  46 NE6       30.25F                  
PENSACOLA NAS  MOSUNNY   55  35  47 N5        30.26F                  
CRESTVIEW      FAIR      53  31  42 NE6       30.26F                  
MARY ESTHER    SUNNY     55  30  39 N6        30.24F                  
PANAMA CITY    FAIR      53  31  42 NW10      30.23F                  
TYNDALL AFB    FAIR      52  32  47 N7        30.26F                  

STATION/POSITION SKY/WX   TEMP    WIND        PRES    WAVE   SWELL
                          AIR SEA DIR/SP/G            HT/PER HT/PER
                          (F)     (DEG/KT/KT) (MB)    (FT/S) (FT/S)
30.1N   87.6W              52                 1025.2
29.2N   88.2W                 76   10/  8/ 14 1025.1
PANAMA CITY BEAC NOT AVBL
TOWER C                    50     360/  9/ 11 1023.5F

$$
FLZ011-016>038-118-127-128-134-139-239-161800-
NORTH FLORIDA
  
CITY           SKY/WX    TMP DP  RH WIND       PRES   REMARKS
TALLAHASSEE    FAIR      52  31  44 N9        30.22F                  
PERRY          FAIR      56  36  47 N8        30.21F                  
LIVE OAK       SUNNY     52  36  54 NW8       30.20F                  
CROSS CITY     FAIR      53  36  51 N9        30.19F                  
LAKE CITY      FAIR      50  36  57 NW8       30.18F                  
GAINESVILLE    FAIR      52  38  58 NW7       30.20F                  
WILLISTON        N/A    N/A N/A N/A MISG        N/A                   
JACKSONVILLE   FAIR      52  36  54 NW6       30.16F                  
JAX NAS        MOSUNNY   51  36  56 W7        30.17F                  
JAX CECIL      SUNNY     55  37  50 NW9       30.17F                  
FERNANDINA BEA FAIR      51  37  57 W10       30.16F                  
ST AUGUSTINE   FAIR      51  40  65 W9        30.17F                  
PALM COAST     SUNNY     52  39  62 NW5       30.16F                  

STATION/POSITION SKY/WX   TEMP    WIND        PRES    WAVE   SWELL
                          AIR SEA DIR/SP/G            HT/PER HT/PER
                          (F)     (DEG/KT/KT) (MB)    (FT/S) (FT/S)
SHELL POINT      NOT AVBL
KEATON BEACH               52      20/  5/  7 1022.7F
CEDAR KEY                  52     340/  4/  8 1022.0F
FERNANDINA                 48 67  280/  7/  9 1022.5F
30.7N   81.3W                 69                N/A     3/11   2/11
MAYPORT                    47 70  270/  9/ 11 1021.7F
31.4N   80.9W              47 68  290/ 10/ 14 1021.0F   3/10   2/10
ST AUGUSTINE               51 69  320/  7/ 10 1021.2F

$$
FLZ040-043>046-052-053-057-058-063-144-161800-
INTERIOR CENTRAL FLORIDA
  
CITY           SKY/WX    TMP DP  RH WIND       PRES   REMARKS
LEESBURG       FAIR      55  41  59 N7        30.16F                  
SANFORD        FAIR      58  45  62 VRB7      30.14F                  
ORLANDO EXEC   FAIR      58  42  55 N8        30.13F                  
ORLANDO INTL   FAIR      60  44  55 NW9       30.13F                  
KISSIMMEE      FAIR      61  46  57 N7        30.14F                  
WINTER HAVEN   FAIR      65  43  44 N10       30.14F                  
LAKELAND       SUNNY     61  41  48 NW10      30.14F                  
BARTOW         SUNNY     63  39  42 NW9       30.12F                  
SEBRING        FAIR      66  44  45 N8        30.11F                  
OKEECHOBEE     FAIR      64  45  48 N8        30.10F                  

$$
FLZ041-047-054-059-064-141-147-161800-
EAST CENTRAL FLORIDA
  
CITY           SKY/WX    TMP DP  RH WIND       PRES   REMARKS
ORMOND BEACH   SUNNY     52  41  66 N8        30.15F                  
DAYTONA BEACH  FAIR      54  45  71 NW6       30.15F                  
DELAND         FAIR      54  43  66 NE7       30.14F                  
NEW SMYRNA BEA CLOUDY    55  46  71 NW8       30.15F                  
TITUSVILLE     MOSUNNY   63  48  59 N12       30.13F                  
CAPE CANAVERAL PTSUNNY   63  53  68 NW14G21   30.10F                  
PATRICK AFB    FAIR      63  53  70 N10       30.10F                  
MELBOURNE      FAIR      64  51  62 N14       30.10F                  
VERO BEACH     PTSUNNY   66  56  70 N17       30.10F                  
FT PIERCE      CLOUDY    66  55  67 N9        30.09F                  
STUART         MOSUNNY   70  57  64 N12G21    30.09F                  

STATION/POSITION SKY/WX   TEMP    WIND        PRES    WAVE   SWELL
                          AIR SEA DIR/SP/G            HT/PER HT/PER
                          (F)     (DEG/KT/KT) (MB)    (FT/S) (FT/S)
28.5N   80.2W              64     340/ 16/ 23 1019.2F   5/10   3/10
28.9N   78.5W              69 81  330/ 14/ 19 1017.8F
TRIDENT PIER               61 78  350/ 11/ 15 1021.1F
28.4N   80.5W                 78                N/A     3/ 9
27.5N   80.2W                 79                N/A     4/ 8   2/11

$$
FLZ050-056-061-142-242-148-248-149-249-151-251-155-255-
160-260-161800-
WEST CENTRAL FLORIDA
  
CITY           SKY/WX    TMP DP  RH WIND       PRES   REMARKS
CRYSTAL RIVER  FAIR      52  37  58 N6        30.17F                  
BROOKSVILLE    FAIR      57  42  57 VRB7      30.16F                  
CLEARWATER AIR FAIR      57  46  67 N9G17     30.16F                  
ST PETE CLEARW FAIR      61  49  64 NW13G18   30.15F                  
TAMPA INTL     FAIR      62  44  51 NW12      30.15F                  
TAMPA EXEC     FAIR      63  43  48 N5        30.16F                  
PLANT CITY     FAIR      63  41  45 N7        30.16F                  
MACDILL AFB    FAIR      62  46  56 N8G17     30.15F                  
PETER O KNIGHT CLOUDY    61  43  51 N3        30.15F                  
ST PETERSBURG  FAIR      61  47  59 NW9       30.13F                  
SARASOTA       FAIR      65  44  46 N12       30.13F                  
VENICE         FAIR      66  39  37 N12       30.14S                  

STATION/POSITION SKY/WX   TEMP    WIND        PRES    WAVE   SWELL
                          AIR SEA DIR/SP/G            HT/PER HT/PER
                          (F)     (DEG/KT/KT) (MB)    (FT/S) (FT/S)
CLEARWATER BEACH           56 70  340/ 19/ 23 1021.9F
MIDDLE TAMPA BAY           59     360/ 13/ 16 1021.3F
VENICE                     63 75  350/ 14/ 18 1020.2F

$$
FLZ066-069-070-075>078-162-262-165-265-161800-
SOUTHWEST FLORIDA AND KEYS
  
CITY           SKY/WX    TMP DP  RH WIND       PRES   REMARKS
PUNTA GORDA    FAIR      66  45  46 N10       30.13F                  
FT MYERS       FAIR      67  44  43 NE10      30.10F                  
SOUTHWEST INTL FAIR      66  45  46 N9        30.10F                  
NAPLES         FAIR      69  39  33 NE10      30.08F                  
MARCO ISLAND   FAIR      69  41  36 N7        30.09F                  
IMMOKALEE      SUNNY     70  46  43 N8        30.10F                  
MARATHON       FAIR      70  51  51 NW10      30.06F                  
KEY WEST NAS   PTSUNNY   74  58  57 N16       30.07F                  
KEY WEST INTL  CLOUDY    74  61  63 N15       30.07F                  

STATION/POSITION SKY/WX   TEMP    WIND        PRES    WAVE   SWELL
                          AIR SEA DIR/SP/G            HT/PER HT/PER
                          (F)     (DEG/KT/KT) (MB)    (FT/S) (FT/S)
NAPLES                     66 77   30/  9/ 13 1019.1F
26.0N   85.6W              68 79   10/ 16/ 23 1021.7F   5/ 7   2/ 8
DRY TORTUGAS               71      10/ 16/ 20 1019.1F
SAND KEY                   70                 1018.4F
SOMBRERO KEY               68     310/ 14/ 18 1017.7F
LONG KEY                   68 78  360/  9/ 10 1017.6F
MOLASSES REEF              69 81   20/ 11/ 13 1017.4F

$$
FLZ067-068-071>074-168-172>174-161800-
SOUTHEAST FLORIDA 
  
CITY           SKY/WX    TMP DP  RH WIND       PRES   REMARKS
W PALM BEACH   FAIR      72  60  66 N13       30.06F                  
BOCA RATON     SUNNY     73  61  64 N13       30.05F                  
FT LAUDER-EXEC FAIR      73  61  65 N7        30.05F                  
FT LAUDERDALE  PTSUNNY   72  63  73 N8        30.04F                  
POMPANO BEACH  PTSUNNY   74  60  61 N6G17     30.05F                  
PEMBROKE PINES FAIR      74  61  63 N13       30.06F                  
OPA LOCKA      FAIR      74  62  66 N12G20    30.05F                  
MIAMI          PTSUNNY   71  61  70 VRB6      30.05F                  
WEST KENDALL   PTSUNNY   72  59  63 N13       30.04F                  
HOMESTEAD      NOT AVBL                                               

STATION/POSITION SKY/WX   TEMP    WIND        PRES    WAVE   SWELL
                          AIR SEA DIR/SP/G            HT/PER HT/PER
                          (F)     (DEG/KT/KT) (MB)    (FT/S) (FT/S)
PORT EVERGLADES            70     320/  8/ 14 1017.5F
VIRGINIA KEY               70 80  320/  5/  9 1017.1F
LAKE WORTH                 69 80  350/ 13/ 18 1018.7F
FOWEY ROCKS                69 80  350/ 12/ 14 1017.9F
SETTLEMENT POINT           74      10/ 15/ 18 1016.4F

$$